Weather History for Iliamna, AK

Change the Weather History Date:

Wednesday, May 1, 2013

  Actual Average Record
Temperature  
Mean Temperature 37 °F -  
Max Temperature 45 °F 46 °F 62 °F (2003)
Min Temperature 29 °F 31 °F 18 °F (1945)
Degree Days  
Heating Degree Days 28    
Moisture  
Dew Point 28 °F    
Average Humidity 68    
Maximum Humidity 92    
Minimum Humidity 47    
Precipitation  
Precipitation 0.00 in - - ()
Sea Level Pressure  
Sea Level Pressure 29.63 in    
Wind  
Wind Speed 8 mph (ESE)    
Max Wind Speed 13 mph    
Max Gust Speed 18 mph    
Visibility 10 miles    
Events Snow    
Averages and records for this station are not official NWS values.
T = Trace of Precipitation, MM = Missing Value Source: NWS Daily Summary

Daily Weather History Graph

Daily Weather History Graph

Search for Another Location

Airport:

Trip Planner

Search our weather history database for the weather conditions in past years. The results will help you decide how hot, cold, wet, or windy it might be!

Date:

Astronomy

May. 01, 2013 Rise Set
Actual Time 6:17 AM AKDT 10:17 PM AKDT
Civil Twilight 5:24 AM AKDT 11:10 PM AKDT
Nautical Twilight 4:03 AM AKDT 12:34 AM AKDT
Astronomical Twilight Sun does not rise Sun does not rise
Moon 3:34 AM AKDT (5/1) 12:12 PM AKDT (5/1)
Length of Visible Light 17h 46m
Length of Day
16h 00m
Waning Gibbous, 57% of the Moon is Illuminated
May 1
Waning Gibbous
May 2
Last Quarter
May 9
New
May 17
First Quarter
May 24
Full

Hourly Weather History & Observations

Time (AKDT) Temp. Windchill Dew Point Humidity Pressure Visibility Wind Dir Wind Speed Gust Speed Precip Events Conditions
12:53 AM 34.0 °F 28.8 °F 30.0 °F 85% 29.74 in 10.0 mi East 5.8 mph - N/A   Overcast
1:53 AM 35.1 °F 27.4 °F 30.9 °F 85% 29.73 in 10.0 mi ENE 10.4 mph - N/A   Overcast
2:53 AM 32.0 °F 26.4 °F 30.0 °F 92% 29.70 in 10.0 mi ENE 5.8 mph - N/A   Clear
3:53 AM 34.0 °F 27.2 °F 28.9 °F 82% 29.68 in 10.0 mi ENE 8.1 mph - N/A   Clear
4:53 AM 35.1 °F 27.9 °F 28.0 °F 76% 29.67 in 10.0 mi ENE 9.2 mph - N/A   Overcast
5:53 AM 35.1 °F 29.3 °F 27.0 °F 72% 29.64 in 10.0 mi North 6.9 mph - N/A   Overcast
6:53 AM 35.1 °F 27.9 °F 27.0 °F 72% 29.63 in 10.0 mi North 9.2 mph - N/A   Overcast
7:53 AM 36.0 °F 29.0 °F 27.0 °F 70% 29.62 in 10.0 mi North 9.2 mph - N/A   Overcast
8:53 AM 37.0 °F 31.6 °F 28.9 °F 73% 29.62 in 9.0 mi North 6.9 mph - 0.00 in Snow Light Snow
9:53 AM 39.0 °F 32.8 °F 28.0 °F 65% 29.60 in 9.0 mi North 9.2 mph - 0.00 in   Unknown
10:53 AM 41.0 °F 35.2 °F 25.0 °F 53% 29.60 in 10.0 mi ENE 9.2 mph - N/A   Overcast
11:53 AM 41.0 °F 35.2 °F 25.0 °F 53% 29.60 in 10.0 mi ESE 9.2 mph - N/A   Overcast
12:53 PM 44.1 °F 38.6 °F 25.0 °F 47% 29.59 in 10.0 mi SE 10.4 mph - N/A   Mostly Cloudy
1:53 PM 42.1 °F 35.2 °F 28.0 °F 58% 29.59 in 10.0 mi SSE 12.7 mph - N/A   Overcast
2:53 PM 42.1 °F 36.6 °F 30.0 °F 62% 29.59 in 10.0 mi South 9.2 mph - N/A   Overcast
3:53 PM 41.0 °F 36.4 °F 28.9 °F 62% 29.60 in 10.0 mi SE 6.9 mph - N/A   Overcast
4:53 PM 44.1 °F 38.6 °F 30.0 °F 58% 29.58 in 10.0 mi South 10.4 mph - N/A   Mostly Cloudy
5:53 PM 43.0 °F 37.2 °F 28.0 °F 56% 29.59 in 10.0 mi SSE 10.4 mph 18.4 mph N/A   Mostly Cloudy
6:53 PM 41.0 °F 35.8 °F 28.9 °F 62% 29.60 in 10.0 mi SSE 8.1 mph - N/A   Mostly Cloudy
7:53 PM 39.0 °F 32.3 °F 30.0 °F 70% 29.60 in 10.0 mi SSE 10.4 mph - N/A   Overcast
8:53 PM 37.9 °F 30.9 °F 28.9 °F 70% 29.60 in 10.0 mi SSE 10.4 mph - N/A   Mostly Cloudy
9:53 PM 37.0 °F 30.4 °F 28.9 °F 73% 29.62 in 10.0 mi SSE 9.2 mph - N/A   Overcast
10:53 PM 36.0 °F 29.6 °F 30.0 °F 79% 29.64 in 10.0 mi SSE 8.1 mph - N/A   Overcast
11:53 PM 35.1 °F - 30.0 °F 82% 29.65 in 10.0 mi Calm Calm - N/A   Overcast